Home > Weather > Ravensburg > Past weeks

Flag for Germany Weather for the Past 2 Weeks in Ravensburg, Baden-Württemberg, Germany

Now
37 °F

Fog.


Feels Like: 35 °F
Forecast: 38 / 66 °F
Wind: 3 mph from North

Location: Friedrichshafen Airport

Current Time: May 4, 2016 at 7:08:46 AM

Latest Report: May 4, 2016 at 6:20 AM


Visibility: 0 mi

Pressure: 30.33 "Hg

Humidity: 100%

Dew Point: 37 °F

Location of RavensburgLocation

Historic Weather in Ravensburg — Graph

°F

Ravensburg Temperature Yesterday

Maximum temperature yesterday: 59 °F (at 1:20 PM)
Minimum temperature yesterday: 39 °F (at 4:50 AM)
Average temperature yesterday: 47 °F

High & Low Weather Summary for the Past Weeks

 TemperatureHumidityPressure
High70 °F (Apr 22, 2:50 PM)100% (Apr 22, 3:50 AM)30.33 "Hg (Apr 22, 3:50 AM)
Low28 °F (Apr 28, 5:50 AM)28% (Apr 30, 4:50 PM)29.65 "Hg (Apr 26, 8:20 AM)
Average47 °F74%30.01 "Hg
* Reported Apr 19 5:20 AM — May 4 5:20 AM, Ravensburg, Weather by CustomWeather, © 2016

Note: Actual official high and low records may vary slightly from our data, if they occured in-between our weather recording intervals... More about our weather records

Advertising

Ravensburg Weather History for the Previous 24 Hours

Scroll right to see more
 ConditionsComfort  
Time TempWeatherWind HumidityBarometerVisibility
5:20 AM
Wed, May 4
37 °FChilly.2 mph100%30.30 "Hg0 mi
5:03 AM37 °FChilly.No wind100%30.30 "Hg1 mi
4:20 AM41 °FQuite cool.1 mph100%30.30 "Hg1 mi
3:50 AM43 °FQuite cool.2 mph100%30.30 "Hg2 mi
3:20 AM43 °FPartly cloudy.1 mph100%30.30 "Hg3 mi
2:50 AM43 °FOvercast.1 mph100%30.30 "Hg4 mi
2:20 AM43 °FOvercast.No wind100%30.30 "Hg4 mi
1:50 AM43 °FPassing clouds.1 mph100%30.30 "HgN/A
12:50 AM45 °FMostly cloudy.No wind93%30.30 "HgN/A
12:20 AM45 °FOvercast.No wind93%30.30 "HgN/A
11:50 PM
Tue, May 3
45 °FPartly cloudy.1 mph93%30.30 "HgN/A
11:20 PM45 °FMostly cloudy.3 mph100%30.30 "HgN/A
10:50 PM45 °FOvercast.1 mph100%30.30 "HgN/A
10:20 PM46 °FLight rain. Overcast.1 mph93%30.27 "HgN/A
9:50 PM46 °FLight rain. Partly cloudy.No wind93%30.27 "HgN/A
9:20 PM46 °FBroken clouds.3 mph87%30.27 "HgN/A
8:50 PM46 °FBroken clouds.2 mph87%30.24 "HgN/A
8:20 PM48 °FScattered clouds.3 mph82%30.24 "HgN/A
7:50 PM48 °FPartly sunny.2 mph87%30.21 "HgN/A
7:20 PM48 °FBroken clouds.6 mph87%30.21 "HgN/A
6:50 PM48 °FSprinkles. Mostly cloudy.5 mph94%30.18 "HgN/A
6:20 PM48 °FSprinkles. Cloudy.3 mph94%30.18 "HgN/A
5:50 PM50 °FSprinkles. Mostly cloudy.3 mph82%30.15 "HgN/A
5:20 PM50 °FSprinkles. Broken clouds.5 mph88%30.15 "HgN/A
4:50 PM50 °FScattered clouds.5 mph88%30.15 "HgN/A
4:20 PM52 °FSprinkles. Partly sunny.6 mph72%30.12 "HgN/A
3:50 PM54 °FPartly sunny.14 mph72%30.12 "HgN/A
3:20 PM55 °FScattered clouds.5 mph72%30.09 "HgN/A
2:50 PM50 °FSprinkles. Partly sunny.6 mph88%30.09 "HgN/A
2:20 PM50 °FThundershowers. Broken clouds.7 mph82%30.12 "HgN/A
1:20 PM59 °FScattered clouds.10 mph63%30.09 "HgN/A
12:50 PM57 °FSunny.10 mph67%30.09 "Hg10 mi
12:20 PM57 °FSunny.8 mph63%30.12 "Hg10 mi
11:50 AM55 °FSunny.6 mph67%30.12 "Hg10 mi
11:20 AM55 °FSunny.6 mph72%30.12 "Hg10 mi
10:50 AM52 °FSunny.6 mph77%30.12 "Hg10 mi
10:20 AM52 °FBroken clouds.5 mph77%30.12 "HgN/A
9:50 AM50 °FScattered clouds.6 mph82%30.12 "Hg5 mi
9:20 AM50 °FScattered clouds.5 mph88%30.12 "Hg4 mi
8:50 AM48 °FPartly sunny.5 mph94%30.12 "Hg4 mi
8:20 AM48 °FClear.No wind100%30.12 "Hg4 mi
7:50 AM43 °FClear.No wind100%30.12 "Hg4 mi
7:20 AM39 °FFog.No wind100%30.12 "Hg3 mi
Weather by CustomWeather, © 2016

See weather overviewHow to use our weather pages